Time,TemperatureF,DewpointF,PressureIn,WindDirection,WindDirectionDegrees,WindSpeedMPH,WindSpeedGustMPH,Humidity,HourlyPrecipIn,Conditions,Clouds,dailyrainin,SoftwareType,DateUTC
2013-01-22 00:02:00,21.3,12.3,30.38,SW,225,0.0,0.0,68,0.00,,,0.00,WUHU216HW,2013-01-22 07:02:00,
2013-01-22 00:07:00,21.0,12.3,30.38,SW,225,0.0,0.0,69,0.00,,,0.00,WUHU216HW,2013-01-22 07:07:00,
2013-01-22 00:12:00,21.3,13.1,30.38,SW,225,0.0,0.0,70,0.00,,,0.00,WUHU216HW,2013-01-22 07:12:00,
2013-01-22 00:17:00,21.3,13.1,30.38,North,0,1.3,2.4,70,0.00,,,0.00,WUHU216HW,2013-01-22 07:17:00,
2013-01-22 00:22:00,21.5,13.2,30.38,North,0,0.0,2.4,70,0.00,,,0.00,WUHU216HW,2013-01-22 07:22:00,
2013-01-22 00:27:00,21.5,13.2,30.38,North,0,0.0,0.0,70,0.00,,,0.00,WUHU216HW,2013-01-22 07:27:00,
2013-01-22 00:32:00,21.7,13.4,30.37,North,0,0.0,0.0,70,0.00,,,0.00,WUHU216HW,2013-01-22 07:32:00,
2013-01-22 00:37:00,21.9,13.6,30.37,North,0,0.0,0.0,70,0.00,,,0.00,WUHU216HW,2013-01-22 07:37:00,
2013-01-22 00:42:00,22.1,13.8,30.38,North,0,0.0,0.0,70,0.00,,,0.00,WUHU216HW,2013-01-22 07:42:00,
2013-01-22 00:47:00,22.1,13.8,30.38,North,0,0.0,0.0,70,0.00,,,0.00,WUHU216HW,2013-01-22 07:47:00,
2013-01-22 00:52:00,22.2,14.0,30.38,North,0,0.0,0.0,70,0.00,,,0.00,WUHU216HW,2013-01-22 07:52:00,
2013-01-22 00:57:00,22.2,14.0,30.38,North,0,0.0,0.0,70,0.00,,,0.00,WUHU216HW,2013-01-22 07:57:00,
2013-01-22 01:03:00,22.4,14.1,30.37,North,0,0.0,0.0,70,0.00,,,0.00,WUHU216HW,2013-01-22 08:03:00,
2013-01-22 01:08:00,22.4,14.1,30.37,North,0,0.0,0.0,70,0.00,,,0.00,WUHU216HW,2013-01-22 08:08:00,
2013-01-22 01:13:00,22.2,14.0,30.37,North,0,0.0,0.0,70,0.00,,,0.00,WUHU216HW,2013-01-22 08:13:00,
2013-01-22 01:18:00,22.1,13.8,30.37,North,0,0.0,0.0,70,0.00,,,0.00,WUHU216HW,2013-01-22 08:18:00,
2013-01-22 01:23:00,21.9,13.8,30.37,North,0,0.0,0.0,70,0.00,,,0.00,WUHU216HW,2013-01-22 08:23:00,
2013-01-22 01:28:00,21.9,13.6,30.37,NE,45,0.0,0.0,70,0.00,,,0.00,WUHU216HW,2013-01-22 08:28:00,
2013-01-22 01:33:00,21.3,13.1,30.37,WSW,248,0.0,4.0,70,0.00,,,0.00,WUHU216HW,2013-01-22 08:33:00,
2013-01-22 01:38:00,20.4,12.2,30.37,SW,225,0.0,4.0,70,0.00,,,0.00,WUHU216HW,2013-01-22 08:38:00,
2013-01-22 01:43:00,20.3,12.0,30.37,SW,225,0.0,2.6,71,0.00,,,0.00,WUHU216HW,2013-01-22 08:43:00,
2013-01-22 01:48:00,20.1,12.1,30.36,SW,225,0.0,0.0,71,0.00,,,0.00,WUHU216HW,2013-01-22 08:48:00,
2013-01-22 01:53:00,19.9,11.9,30.37,SW,225,0.0,0.0,71,0.00,,,0.00,WUHU216HW,2013-01-22 08:53:00,
2013-01-22 01:58:00,19.7,11.7,30.37,SW,225,0.0,0.0,71,0.00,,,0.00,WUHU216HW,2013-01-22 08:58:00,
2013-01-22 02:03:00,19.5,11.9,30.37,SW,225,0.0,0.0,72,0.00,,,0.00,WUHU216HW,2013-01-22 09:03:00,
2013-01-22 02:08:00,19.5,11.9,30.38,SW,225,0.0,0.0,72,0.00,,,0.00,WUHU216HW,2013-01-22 09:08:00,
2013-01-22 02:13:00,19.5,12.2,30.38,SW,225,0.0,0.0,73,0.00,,,0.00,WUHU216HW,2013-01-22 09:13:00,
2013-01-22 02:18:00,19.5,12.2,30.37,SW,225,0.0,0.0,73,0.00,,,0.00,WUHU216HW,2013-01-22 09:18:00,
2013-01-22 02:23:00,19.9,12.5,30.37,SW,225,0.0,0.0,73,0.00,,,0.00,WUHU216HW,2013-01-22 09:23:00,
2013-01-22 02:28:00,20.1,12.7,30.37,SW,225,0.0,0.0,73,0.00,,,0.00,WUHU216HW,2013-01-22 09:28:00,
2013-01-22 02:33:00,20.3,12.6,30.37,SW,225,0.0,0.0,72,0.00,,,0.00,WUHU216HW,2013-01-22 09:33:00,
2013-01-22 02:38:00,20.1,12.4,30.37,SW,225,0.0,0.0,72,0.00,,,0.00,WUHU216HW,2013-01-22 09:38:00,
2013-01-22 02:43:00,19.9,12.2,30.37,SW,225,0.0,0.0,72,0.00,,,0.00,WUHU216HW,2013-01-22 09:43:00,
2013-01-22 02:48:00,19.7,12.0,30.38,SW,225,0.0,0.0,72,0.00,,,0.00,WUHU216HW,2013-01-22 09:48:00,
2013-01-22 02:54:00,19.5,11.9,30.38,SW,225,0.0,0.0,72,0.00,,,0.00,WUHU216HW,2013-01-22 09:54:00,
2013-01-22 02:59:00,19.2,11.5,30.38,SW,225,0.0,0.0,72,0.00,,,0.00,WUHU216HW,2013-01-22 09:59:00,
2013-01-22 03:04:00,19.0,11.3,30.38,SW,225,0.0,0.0,72,0.00,,,0.00,WUHU216HW,2013-01-22 10:04:00,
2013-01-22 03:09:00,18.6,11.0,30.38,SW,225,0.0,0.0,73,0.00,,,0.00,WUHU216HW,2013-01-22 10:09:00,
2013-01-22 03:14:00,18.5,11.1,30.38,SW,225,0.0,0.0,73,0.00,,,0.00,WUHU216HW,2013-01-22 10:14:00,
2013-01-22 03:19:00,18.3,11.0,30.38,SW,225,0.0,0.0,73,0.00,,,0.00,WUHU216HW,2013-01-22 10:19:00,
2013-01-22 03:24:00,18.1,11.1,30.38,SW,225,0.0,0.0,74,0.00,,,0.00,WUHU216HW,2013-01-22 10:24:00,
2013-01-22 03:29:00,18.1,11.1,30.38,SW,225,0.0,0.0,74,0.00,,,0.00,WUHU216HW,2013-01-22 10:29:00,
2013-01-22 03:34:00,17.9,10.9,30.38,SW,225,0.0,0.0,74,0.00,,,0.00,WUHU216HW,2013-01-22 10:34:00,
2013-01-22 03:39:00,17.9,11.2,30.38,SW,225,0.0,0.0,75,0.00,,,0.00,WUHU216HW,2013-01-22 10:39:00,
2013-01-22 03:44:00,18.1,11.4,30.38,SW,225,0.0,0.0,75,0.00,,,0.00,WUHU216HW,2013-01-22 10:44:00,
2013-01-22 03:49:00,18.3,11.6,30.38,SW,225,0.0,0.0,75,0.00,,,0.00,WUHU216HW,2013-01-22 10:49:00,
2013-01-22 03:54:00,18.5,11.7,30.38,SW,225,0.0,0.0,75,0.00,,,0.00,WUHU216HW,2013-01-22 10:54:00,
2013-01-22 03:59:00,18.5,11.7,30.38,SW,225,0.0,0.0,75,0.00,,,0.00,WUHU216HW,2013-01-22 10:59:00,
2013-01-22 04:04:00,18.5,11.7,30.37,SW,225,0.0,0.0,75,0.00,,,0.00,WUHU216HW,2013-01-22 11:04:00,
2013-01-22 04:09:00,18.5,11.7,30.37,SW,225,0.0,0.0,75,0.00,,,0.00,WUHU216HW,2013-01-22 11:09:00,
2013-01-22 04:14:00,18.3,11.6,30.38,SW,225,0.0,0.0,75,0.00,,,0.00,WUHU216HW,2013-01-22 11:14:00,
2013-01-22 04:19:00,17.9,10.9,30.38,SW,225,0.0,0.0,74,0.00,,,0.00,WUHU216HW,2013-01-22 11:19:00,
2013-01-22 04:24:00,17.4,10.4,30.38,SW,225,0.0,0.0,74,0.00,,,0.00,WUHU216HW,2013-01-22 11:24:00,
2013-01-22 04:29:00,16.7,9.7,30.38,SW,225,0.0,0.0,74,0.00,,,0.00,WUHU216HW,2013-01-22 11:29:00,
2013-01-22 04:34:00,16.1,9.2,30.38,SW,225,0.0,0.0,74,0.00,,,0.00,WUHU216HW,2013-01-22 11:34:00,
2013-01-22 04:40:00,15.6,9.0,30.38,SW,225,0.0,0.0,75,0.00,,,0.00,WUHU216HW,2013-01-22 11:40:00,
2013-01-22 04:45:00,15.4,9.0,30.38,SW,225,0.0,0.0,75,0.00,,,0.00,WUHU216HW,2013-01-22 11:45:00,
2013-01-22 04:50:00,15.2,9.0,30.38,SW,225,0.0,0.0,76,0.00,,,0.00,WUHU216HW,2013-01-22 11:50:00,
2013-01-22 04:55:00,15.2,9.0,30.38,SW,225,0.0,0.0,76,0.00,,,0.00,WUHU216HW,2013-01-22 11:55:00,
2013-01-22 05:01:00,15.6,9.6,30.38,SW,225,0.0,0.0,77,0.00,,,0.00,WUHU216HW,2013-01-22 12:01:00,
2013-01-22 05:06:00,15.6,9.6,30.38,SW,225,0.0,0.0,77,0.00,,,0.00,WUHU216HW,2013-01-22 12:06:00,
2013-01-22 05:11:00,15.8,9.8,30.38,SW,225,1.5,2.4,77,0.00,,,0.00,WUHU216HW,2013-01-22 12:11:00,
2013-01-22 05:16:00,15.9,10.3,30.38,SW,225,0.0,2.4,78,0.00,,,0.00,WUHU216HW,2013-01-22 12:16:00,
2013-01-22 05:21:00,16.3,10.6,30.38,SW,225,1.5,1.5,78,0.00,,,0.00,WUHU216HW,2013-01-22 12:21:00,
2013-01-22 05:27:00,16.7,10.9,30.38,SW,225,0.0,1.5,78,0.00,,,0.00,WUHU216HW,2013-01-22 12:27:00,
2013-01-22 05:32:00,16.8,11.1,30.38,SW,225,0.0,0.0,78,0.00,,,0.00,WUHU216HW,2013-01-22 12:32:00,
2013-01-22 05:37:00,16.8,10.8,30.38,SW,225,0.0,0.0,77,0.00,,,0.00,WUHU216HW,2013-01-22 12:37:00,
2013-01-22 05:42:00,16.8,10.8,30.38,SW,225,0.0,0.0,77,0.00,,,0.00,WUHU216HW,2013-01-22 12:42:00,
2013-01-22 05:47:00,16.7,10.6,30.38,SW,225,0.0,0.0,77,0.00,,,0.00,WUHU216HW,2013-01-22 12:47:00,
2013-01-22 05:52:00,16.3,10.3,30.38,SW,225,0.0,0.0,77,0.00,,,0.00,WUHU216HW,2013-01-22 12:52:00,
2013-01-22 05:57:00,15.8,10.0,30.38,SW,225,0.0,0.0,77,0.00,,,0.00,WUHU216HW,2013-01-22 12:57:00,
2013-01-22 06:03:00,15.6,9.6,30.38,SW,225,0.0,0.0,77,0.00,,,0.00,WUHU216HW,2013-01-22 13:03:00,
2013-01-22 06:08:00,15.2,9.3,30.38,SW,225,0.0,0.0,77,0.00,,,0.00,WUHU216HW,2013-01-22 13:08:00,
2013-01-22 06:13:00,15.0,9.1,30.38,SW,225,0.0,0.0,77,0.00,,,0.00,WUHU216HW,2013-01-22 13:13:00,
2013-01-22 06:18:00,14.9,8.9,30.38,SW,225,0.0,0.0,77,0.00,,,0.00,WUHU216HW,2013-01-22 13:18:00,
2013-01-22 06:24:00,14.7,8.7,30.38,SW,225,0.0,0.0,77,0.00,,,0.00,WUHU216HW,2013-01-22 13:24:00,
2013-01-22 06:29:00,14.5,8.6,30.38,SW,225,0.0,0.0,77,0.00,,,0.00,WUHU216HW,2013-01-22 13:29:00,
2013-01-22 06:34:00,14.5,8.9,30.38,SW,225,0.0,0.0,78,0.00,,,0.00,WUHU216HW,2013-01-22 13:34:00,
2013-01-22 06:39:00,14.7,9.0,30.37,SW,225,0.0,0.0,78,0.00,,,0.00,WUHU216HW,2013-01-22 13:39:00,
2013-01-22 06:44:00,14.7,9.3,30.37,SW,225,0.0,0.0,79,0.00,,,0.00,WUHU216HW,2013-01-22 13:44:00,
2013-01-22 06:49:00,14.7,9.3,30.38,SW,225,0.0,0.0,79,0.00,,,0.00,WUHU216HW,2013-01-22 13:49:00,
2013-01-22 06:54:00,14.7,9.3,30.38,SW,225,0.0,0.0,79,0.00,,,0.00,WUHU216HW,2013-01-22 13:54:00,
2013-01-22 06:59:00,14.7,9.3,30.38,SW,225,0.0,0.0,79,0.00,,,0.00,WUHU216HW,2013-01-22 13:59:00,
2013-01-22 07:04:00,14.7,9.3,30.38,SW,225,0.0,0.0,79,0.00,,,0.00,WUHU216HW,2013-01-22 14:04:00,
2013-01-22 07:09:00,14.7,9.3,30.38,SW,225,0.0,0.0,79,0.00,,,0.00,WUHU216HW,2013-01-22 14:09:00,
2013-01-22 07:14:00,14.5,9.1,30.37,SW,225,0.0,0.0,79,0.00,,,0.00,WUHU216HW,2013-01-22 14:14:00,
2013-01-22 07:19:00,14.3,9.0,30.38,SW,225,0.0,0.0,79,0.00,,,0.00,WUHU216HW,2013-01-22 14:19:00,
2013-01-22 07:25:00,14.1,8.5,30.38,SW,225,0.0,0.0,78,0.00,,,0.00,WUHU216HW,2013-01-22 14:25:00,
2013-01-22 07:30:00,13.8,8.2,30.38,SW,225,0.0,0.0,78,0.00,,,0.00,WUHU216HW,2013-01-22 14:30:00,
2013-01-22 07:35:00,13.6,8.0,30.38,SW,225,0.0,0.0,78,0.00,,,0.00,WUHU216HW,2013-01-22 14:35:00,
2013-01-22 07:40:00,13.2,7.6,30.38,SW,225,0.0,0.0,78,0.00,,,0.00,WUHU216HW,2013-01-22 14:40:00,
2013-01-22 07:45:00,12.9,7.3,30.38,SW,225,0.0,0.0,78,0.00,,,0.00,WUHU216HW,2013-01-22 14:45:00,
2013-01-22 07:50:00,12.9,7.5,30.38,SW,225,0.0,0.0,79,0.00,,,0.00,WUHU216HW,2013-01-22 14:50:00,
2013-01-22 07:55:00,12.9,7.5,30.38,SW,225,0.0,0.0,79,0.00,,,0.00,WUHU216HW,2013-01-22 14:55:00,
2013-01-22 08:00:00,12.9,7.5,30.38,SW,225,0.0,0.0,79,0.00,,,0.00,WUHU216HW,2013-01-22 15:00:00,
2013-01-22 08:05:00,13.1,8.0,30.38,SW,225,0.0,0.0,80,0.00,,,0.00,WUHU216HW,2013-01-22 15:05:00,
2013-01-22 08:10:00,13.2,8.2,30.38,SW,225,0.0,0.0,80,0.00,,,0.00,WUHU216HW,2013-01-22 15:10:00,
2013-01-22 08:15:00,13.6,8.6,30.38,SW,225,0.0,0.0,80,0.00,,,0.00,WUHU216HW,2013-01-22 15:15:00,
2013-01-22 08:20:00,13.8,9.0,30.38,SW,225,0.0,0.0,81,0.00,,,0.00,WUHU216HW,2013-01-22 15:20:00,
2013-01-22 08:25:00,13.8,9.0,30.38,SW,225,0.0,0.0,81,0.00,,,0.00,WUHU216HW,2013-01-22 15:25:00,
2013-01-22 08:30:00,13.6,8.8,30.38,SW,225,0.0,0.0,81,0.00,,,0.00,WUHU216HW,2013-01-22 15:30:00,
2013-01-22 08:35:00,13.8,9.0,30.38,SW,225,0.0,0.0,81,0.00,,,0.00,WUHU216HW,2013-01-22 15:35:00,
2013-01-22 08:41:00,13.8,9.0,30.39,SW,225,0.0,0.0,81,0.00,,,0.00,WUHU216HW,2013-01-22 15:41:00,
2013-01-22 08:46:00,13.8,9.0,30.39,SW,225,0.0,0.0,81,0.00,,,0.00,WUHU216HW,2013-01-22 15:46:00,
2013-01-22 08:51:00,14.3,9.5,30.39,SW,225,0.0,2.9,81,0.00,,,0.00,WUHU216HW,2013-01-22 15:51:00,
2013-01-22 08:56:00,14.9,10.1,30.40,SW,225,0.0,2.9,81,0.00,,,0.00,WUHU216HW,2013-01-22 15:56:00,
2013-01-22 09:01:00,15.4,10.6,30.40,SW,225,0.0,1.1,81,0.00,,,0.00,WUHU216HW,2013-01-22 16:01:00,
2013-01-22 09:06:00,15.6,10.8,30.40,SW,225,0.0,1.1,81,0.00,,,0.00,WUHU216HW,2013-01-22 16:06:00,
2013-01-22 09:11:00,15.6,10.8,30.40,SW,225,0.0,0.0,81,0.00,,,0.00,WUHU216HW,2013-01-22 16:11:00,
2013-01-22 09:17:00,15.4,10.4,30.40,SW,225,0.0,0.0,80,0.00,,,0.00,WUHU216HW,2013-01-22 16:17:00,
2013-01-22 09:22:00,15.4,10.4,30.40,SW,225,0.0,0.0,80,0.00,,,0.00,WUHU216HW,2013-01-22 16:22:00,
2013-01-22 09:27:00,15.4,10.4,30.40,SW,225,0.0,0.0,80,0.00,,,0.00,WUHU216HW,2013-01-22 16:27:00,
2013-01-22 09:32:00,15.2,10.2,30.40,SW,225,0.0,0.0,80,0.00,,,0.00,WUHU216HW,2013-01-22 16:32:00,
2013-01-22 09:37:00,15.2,10.2,30.40,SW,225,0.0,0.0,80,0.00,,,0.00,WUHU216HW,2013-01-22 16:37:00,
2013-01-22 09:42:00,15.0,10.0,30.40,SW,225,0.0,0.0,80,0.00,,,0.00,WUHU216HW,2013-01-22 16:42:00,
2013-01-22 09:47:00,15.2,10.2,30.40,SW,225,0.0,0.0,80,0.00,,,0.00,WUHU216HW,2013-01-22 16:47:00,
2013-01-22 09:52:00,15.4,10.4,30.40,SW,225,0.0,0.0,80,0.00,,,0.00,WUHU216HW,2013-01-22 16:52:00,
2013-01-22 09:58:00,15.6,10.5,30.40,SW,225,0.0,0.0,80,0.00,,,0.00,WUHU216HW,2013-01-22 16:58:00,
2013-01-22 10:03:00,15.9,10.9,30.40,SW,225,0.0,0.0,80,0.00,,,0.00,WUHU216HW,2013-01-22 17:03:00,
2013-01-22 10:08:00,16.3,11.0,30.40,SW,225,0.0,0.0,80,0.00,,,0.00,WUHU216HW,2013-01-22 17:08:00,
2013-01-22 10:13:00,16.3,11.2,30.40,SW,225,0.0,0.0,80,0.00,,,0.00,WUHU216HW,2013-01-22 17:13:00,
2013-01-22 10:18:00,16.7,11.5,30.39,SW,225,0.0,0.0,80,0.00,,,0.00,WUHU216HW,2013-01-22 17:18:00,
2013-01-22 10:23:00,16.8,11.7,30.40,SW,225,0.0,0.0,80,0.00,,,0.00,WUHU216HW,2013-01-22 17:23:00,
2013-01-22 10:28:00,17.4,12.2,30.39,SW,225,0.0,0.0,80,0.00,,,0.00,WUHU216HW,2013-01-22 17:28:00,
2013-01-22 10:33:00,18.1,12.9,30.39,SW,225,0.0,0.0,80,0.00,,,0.00,WUHU216HW,2013-01-22 17:33:00,
2013-01-22 10:38:00,18.6,13.4,30.39,SW,225,0.0,0.0,80,0.00,,,0.00,WUHU216HW,2013-01-22 17:38:00,
2013-01-22 10:43:00,19.2,14.2,30.39,SW,225,0.0,0.0,81,0.00,,,0.00,WUHU216HW,2013-01-22 17:43:00,
2013-01-22 10:48:00,19.5,14.3,30.39,SW,225,0.0,0.0,80,0.00,,,0.00,WUHU216HW,2013-01-22 17:48:00,
2013-01-22 10:53:00,20.1,14.9,30.39,SW,225,0.0,0.0,80,0.00,,,0.00,WUHU216HW,2013-01-22 17:53:00,
2013-01-22 10:58:00,20.4,15.2,30.40,SW,225,0.0,0.0,80,0.00,,,0.00,WUHU216HW,2013-01-22 17:58:00,
2013-01-22 11:03:00,21.0,15.4,30.40,SW,225,0.0,0.0,79,0.00,,,0.00,WUHU216HW,2013-01-22 18:03:00,
2013-01-22 11:08:00,21.5,16.0,30.40,SW,225,0.0,0.0,79,0.00,,,0.00,WUHU216HW,2013-01-22 18:08:00,
2013-01-22 11:13:00,21.9,16.3,30.40,SW,225,0.0,0.0,79,0.00,,,0.00,WUHU216HW,2013-01-22 18:13:00,
2013-01-22 11:18:00,22.2,17.0,30.39,SW,225,0.0,0.0,80,0.00,,,0.00,WUHU216HW,2013-01-22 18:18:00,
2013-01-22 11:23:00,23.0,17.4,30.40,SW,225,0.0,0.0,79,0.00,,,0.00,WUHU216HW,2013-01-22 18:23:00,
2013-01-22 11:28:00,23.5,17.9,30.40,SW,225,0.0,0.0,79,0.00,,,0.00,WUHU216HW,2013-01-22 18:28:00,
2013-01-22 11:33:00,23.9,18.0,30.40,SW,225,0.0,0.0,78,0.00,,,0.00,WUHU216HW,2013-01-22 18:33:00,
2013-01-22 11:38:00,24.4,18.5,30.39,SW,225,0.0,0.0,78,0.00,,,0.00,WUHU216HW,2013-01-22 18:38:00,
2013-01-22 11:44:00,24.6,18.7,30.40,SW,225,0.0,0.0,78,0.00,,,0.00,WUHU216HW,2013-01-22 18:44:00,
2013-01-22 11:49:00,24.9,18.7,30.39,SW,225,0.0,0.0,77,0.00,,,0.00,WUHU216HW,2013-01-22 18:49:00,
2013-01-22 11:54:00,25.1,18.9,30.39,SW,225,0.0,0.0,77,0.00,,,0.00,WUHU216HW,2013-01-22 18:54:00,
2013-01-22 11:59:00,25.3,18.7,30.39,SW,225,0.0,0.0,76,0.00,,,0.00,WUHU216HW,2013-01-22 18:59:00,
2013-01-22 12:04:00,25.5,18.9,30.38,SW,225,0.0,0.0,76,0.00,,,0.00,WUHU216HW,2013-01-22 19:04:00,
2013-01-22 12:09:00,25.7,19.1,30.39,SW,225,0.0,0.0,76,0.00,,,0.00,WUHU216HW,2013-01-22 19:09:00,
2013-01-22 12:14:00,26.0,19.4,30.39,SW,225,0.0,0.0,76,0.00,,,0.00,WUHU216HW,2013-01-22 19:14:00,
2013-01-22 12:19:00,26.2,19.0,30.38,SW,225,0.0,0.0,74,0.00,,,0.00,WUHU216HW,2013-01-22 19:19:00,
2013-01-22 12:24:00,26.4,18.8,30.38,SW,225,0.0,0.0,73,0.00,,,0.00,WUHU216HW,2013-01-22 19:24:00,
2013-01-22 12:29:00,26.7,18.9,30.38,SW,225,0.0,0.0,72,0.00,,,0.00,WUHU216HW,2013-01-22 19:29:00,
2013-01-22 12:34:00,27.1,18.9,30.38,SW,225,0.0,0.0,71,0.00,,,0.00,WUHU216HW,2013-01-22 19:34:00,
2013-01-22 12:39:00,27.5,19.1,30.38,SW,225,0.0,0.0,71,0.00,,,0.00,WUHU216HW,2013-01-22 19:39:00,
2013-01-22 12:44:00,28.0,19.2,30.38,SW,225,0.0,0.0,70,0.00,,,0.00,WUHU216HW,2013-01-22 19:44:00,
2013-01-22 12:49:00,28.0,19.5,30.38,SW,225,0.0,0.0,70,0.00,,,0.00,WUHU216HW,2013-01-22 19:49:00,
2013-01-22 12:54:00,28.5,20.1,30.38,SW,225,0.0,0.0,70,0.00,,,0.00,WUHU216HW,2013-01-22 19:54:00,
2013-01-22 12:59:00,28.9,20.0,30.38,SW,225,0.0,0.0,69,0.00,,,0.00,WUHU216HW,2013-01-22 19:59:00,
2013-01-22 13:04:00,29.3,19.8,30.38,SW,225,0.0,0.0,68,0.00,,,0.00,WUHU216HW,2013-01-22 20:04:00,
2013-01-22 13:10:00,29.6,20.3,30.37,SW,225,0.0,0.0,68,0.00,,,0.00,WUHU216HW,2013-01-22 20:10:00,
2013-01-22 13:15:00,30.0,20.3,30.37,SW,225,0.0,0.0,67,0.00,,,0.00,WUHU216HW,2013-01-22 20:15:00,
2013-01-22 13:20:00,30.0,19.9,30.37,North,0,1.1,2.4,66,0.00,,,0.00,WUHU216HW,2013-01-22 20:20:00,
2013-01-22 13:25:00,30.3,19.9,30.37,North,0,0.0,2.4,65,0.00,,,0.00,WUHU216HW,2013-01-22 20:25:00,
2013-01-22 13:30:00,30.5,20.1,30.37,North,0,0.0,1.5,65,0.00,,,0.00,WUHU216HW,2013-01-22 20:30:00,
2013-01-22 13:35:00,30.7,19.9,30.37,North,0,0.0,0.0,64,0.00,,,0.00,WUHU216HW,2013-01-22 20:35:00,
2013-01-22 13:40:00,30.9,19.7,30.37,North,0,0.0,0.0,63,0.00,,,0.00,WUHU216HW,2013-01-22 20:40:00,
2013-01-22 13:45:00,30.9,19.7,30.37,NNE,23,2.2,2.2,63,0.00,,,0.00,WUHU216HW,2013-01-22 20:45:00,
2013-01-22 13:50:00,31.1,19.2,30.37,NE,45,2.4,4.2,61,0.00,,,0.00,WUHU216HW,2013-01-22 20:50:00,
2013-01-22 13:55:00,31.1,19.5,30.37,NE,45,2.4,4.2,62,0.00,,,0.00,WUHU216HW,2013-01-22 20:55:00,
2013-01-22 14:00:00,30.9,19.7,30.37,NE,45,2.4,3.1,63,0.00,,,0.00,WUHU216HW,2013-01-22 21:00:00,
2013-01-22 14:05:00,30.7,19.2,30.37,NE,45,2.9,3.3,62,0.00,,,0.00,WUHU216HW,2013-01-22 21:05:00,
2013-01-22 14:11:00,30.7,19.2,30.36,NE,45,2.6,3.3,62,0.00,,,0.00,WUHU216HW,2013-01-22 21:11:00,
2013-01-22 14:16:00,30.5,19.4,30.36,NE,45,0.0,3.3,63,0.00,,,0.00,WUHU216HW,2013-01-22 21:16:00,
2013-01-22 14:21:00,30.5,19.4,30.35,NE,45,2.6,4.0,63,0.00,,,0.00,WUHU216HW,2013-01-22 21:21:00,
2013-01-22 14:26:00,30.3,19.2,30.35,NE,45,2.4,4.0,63,0.00,,,0.00,WUHU216HW,2013-01-22 21:26:00,
2013-01-22 14:31:00,30.3,19.2,30.35,NE,45,1.1,2.4,63,0.00,,,0.00,WUHU216HW,2013-01-22 21:31:00,
2013-01-22 14:36:00,30.2,19.0,30.35,NE,45,0.0,3.3,63,0.00,,,0.00,WUHU216HW,2013-01-22 21:36:00,
2013-01-22 14:41:00,30.2,19.0,30.36,NE,45,2.6,3.5,63,0.00,,,0.00,WUHU216HW,2013-01-22 21:41:00,
2013-01-22 14:47:00,30.2,19.0,30.35,NE,45,1.3,3.5,63,0.00,,,0.00,WUHU216HW,2013-01-22 21:47:00,
2013-01-22 14:52:00,30.0,18.8,30.35,NE,45,0.0,2.9,63,0.00,,,0.00,WUHU216HW,2013-01-22 21:52:00,
2013-01-22 14:57:00,30.0,18.8,30.35,NE,45,1.5,2.4,63,0.00,,,0.00,WUHU216HW,2013-01-22 21:57:00,
2013-01-22 15:02:00,30.0,19.2,30.35,NE,45,3.8,3.8,64,0.00,,,0.00,WUHU216HW,2013-01-22 22:02:00,
2013-01-22 15:07:00,30.0,19.2,30.35,NE,45,2.4,3.8,64,0.00,,,0.00,WUHU216HW,2013-01-22 22:07:00,
2013-01-22 15:12:00,29.8,19.4,30.35,NE,45,2.9,3.8,65,0.00,,,0.00,WUHU216HW,2013-01-22 22:12:00,
2013-01-22 15:17:00,29.4,19.1,30.35,NE,45,1.7,3.8,65,0.00,,,0.00,WUHU216HW,2013-01-22 22:17:00,
2013-01-22 15:22:00,29.3,19.3,30.35,NE,45,2.4,3.3,66,0.00,,,0.00,WUHU216HW,2013-01-22 22:22:00,
2013-01-22 15:28:00,29.1,19.1,30.35,NE,45,1.7,3.3,66,0.00,,,0.00,WUHU216HW,2013-01-22 22:28:00,
2013-01-22 15:33:00,29.1,19.1,30.35,NE,45,0.0,2.4,66,0.00,,,0.00,WUHU216HW,2013-01-22 22:33:00,
2013-01-22 15:38:00,29.1,19.1,30.34,NE,45,0.0,0.0,66,0.00,,,0.00,WUHU216HW,2013-01-22 22:38:00,
2013-01-22 15:43:00,29.1,19.1,30.34,NE,45,1.7,1.7,66,0.00,,,0.00,WUHU216HW,2013-01-22 22:43:00,
2013-01-22 15:48:00,28.9,18.9,30.35,NE,45,0.0,2.2,66,0.00,,,0.00,WUHU216HW,2013-01-22 22:48:00,
2013-01-22 15:53:00,28.9,18.9,30.34,NE,45,0.0,2.2,66,0.00,,,0.00,WUHU216HW,2013-01-22 22:53:00,
2013-01-22 15:58:00,28.9,18.9,30.34,NE,45,0.0,0.0,66,0.00,,,0.00,WUHU216HW,2013-01-22 22:58:00,
2013-01-22 16:03:00,28.5,18.6,30.34,NE,45,0.0,0.0,66,0.00,,,0.00,WUHU216HW,2013-01-22 23:03:00,
2013-01-22 16:08:00,28.5,19.0,30.34,NE,45,0.0,0.0,67,0.00,,,0.00,WUHU216HW,2013-01-22 23:08:00,
2013-01-22 16:13:00,28.5,19.0,30.34,NE,45,0.0,0.0,67,0.00,,,0.00,WUHU216HW,2013-01-22 23:13:00,
2013-01-22 16:18:00,28.4,18.8,30.34,NE,45,0.0,0.0,67,0.00,,,0.00,WUHU216HW,2013-01-22 23:18:00,
2013-01-22 16:23:00,28.2,18.6,30.34,NE,45,0.0,0.0,67,0.00,,,0.00,WUHU216HW,2013-01-22 23:23:00,
2013-01-22 16:28:00,28.2,18.6,30.34,NE,45,0.0,0.0,67,0.00,,,0.00,WUHU216HW,2013-01-22 23:28:00,
2013-01-22 16:33:00,28.0,18.5,30.34,NE,45,0.0,0.0,67,0.00,,,0.00,WUHU216HW,2013-01-22 23:33:00,
2013-01-22 16:38:00,28.0,18.5,30.34,NE,45,0.0,0.0,67,0.00,,,0.00,WUHU216HW,2013-01-22 23:38:00,
2013-01-22 16:43:00,27.6,18.1,30.34,NE,45,0.0,0.0,67,0.00,,,0.00,WUHU216HW,2013-01-22 23:43:00,
2013-01-22 16:48:00,27.6,18.5,30.34,NE,45,0.0,0.0,68,0.00,,,0.00,WUHU216HW,2013-01-22 23:48:00,
2013-01-22 16:53:00,27.5,18.3,30.34,NE,45,0.0,0.0,68,0.00,,,0.00,WUHU216HW,2013-01-22 23:53:00,
2013-01-22 16:58:00,27.1,17.9,30.33,NE,45,0.0,0.0,68,0.00,,,0.00,WUHU216HW,2013-01-22 23:58:00,
2013-01-22 17:04:00,27.1,17.9,30.33,NE,45,0.0,0.0,68,0.00,,,0.00,WUHU216HW,2013-01-23 00:04:00,
2013-01-22 17:09:00,26.7,17.6,30.33,NE,45,0.0,0.0,68,0.00,,,0.00,WUHU216HW,2013-01-23 00:09:00,
2013-01-22 17:14:00,26.6,17.7,30.33,NE,45,0.0,0.0,69,0.00,,,0.00,WUHU216HW,2013-01-23 00:14:00,
2013-01-22 17:19:00,26.4,17.6,30.33,NE,45,0.0,0.0,69,0.00,,,0.00,WUHU216HW,2013-01-23 00:19:00,
2013-01-22 17:24:00,26.2,17.4,30.33,NE,45,0.0,0.0,69,0.00,,,0.00,WUHU216HW,2013-01-23 00:24:00,
2013-01-22 17:29:00,26.0,17.2,30.33,NE,45,0.0,0.0,69,0.00,,,0.00,WUHU216HW,2013-01-23 00:29:00,
2013-01-22 17:34:00,25.8,17.0,30.33,NE,45,0.0,0.0,69,0.00,,,0.00,WUHU216HW,2013-01-23 00:34:00,
2013-01-22 17:39:00,25.8,17.0,30.33,NE,45,0.0,0.0,69,0.00,,,0.00,WUHU216HW,2013-01-23 00:39:00,
2013-01-22 17:44:00,25.7,17.2,30.33,NE,45,0.0,0.0,70,0.00,,,0.00,WUHU216HW,2013-01-23 00:44:00,
2013-01-22 17:49:00,25.5,17.0,30.33,NE,45,0.0,0.0,70,0.00,,,0.00,WUHU216HW,2013-01-23 00:49:00,
2013-01-22 17:54:00,25.5,17.0,30.33,NE,45,0.0,0.0,70,0.00,,,0.00,WUHU216HW,2013-01-23 00:54:00,
2013-01-22 17:59:00,25.3,16.8,30.34,NE,45,0.0,0.0,70,0.00,,,0.00,WUHU216HW,2013-01-23 00:59:00,
2013-01-22 18:04:00,25.3,16.8,30.34,NE,45,0.0,0.0,70,0.00,,,0.00,WUHU216HW,2013-01-23 01:04:00,
2013-01-22 18:09:00,25.3,17.1,30.33,NE,45,0.0,0.0,71,0.00,,,0.00,WUHU216HW,2013-01-23 01:09:00,
2013-01-22 18:15:00,25.3,17.1,30.33,NE,45,0.0,0.0,71,0.00,,,0.00,WUHU216HW,2013-01-23 01:15:00,
2013-01-22 18:20:00,25.3,17.5,30.33,NE,45,0.0,0.0,72,0.00,,,0.00,WUHU216HW,2013-01-23 01:20:00,
2013-01-22 18:25:00,25.3,17.5,30.33,NE,45,0.0,0.0,72,0.00,,,0.00,WUHU216HW,2013-01-23 01:25:00,
2013-01-22 18:30:00,25.3,17.5,30.33,NE,45,0.0,0.0,72,0.00,,,0.00,WUHU216HW,2013-01-23 01:30:00,
2013-01-22 18:35:00,25.1,17.3,30.33,NE,45,0.0,0.0,72,0.00,,,0.00,WUHU216HW,2013-01-23 01:35:00,
2013-01-22 18:40:00,25.1,17.3,30.33,NE,45,0.0,0.0,72,0.00,,,0.00,WUHU216HW,2013-01-23 01:40:00,
2013-01-22 18:45:00,24.9,17.1,30.33,NE,45,0.0,0.0,72,0.00,,,0.00,WUHU216HW,2013-01-23 01:45:00,
2013-01-22 18:50:00,24.9,17.1,30.33,NE,45,0.0,0.0,72,0.00,,,0.00,WUHU216HW,2013-01-23 01:50:00,
2013-01-22 18:55:00,24.9,17.1,30.33,NE,45,0.0,0.0,72,0.00,,,0.00,WUHU216HW,2013-01-23 01:55:00,
2013-01-22 19:00:00,24.9,17.1,30.33,NE,45,0.0,0.0,72,0.00,,,0.00,WUHU216HW,2013-01-23 02:00:00,
2013-01-22 19:05:00,24.8,16.9,30.33,NE,45,0.0,0.0,72,0.00,,,0.00,WUHU216HW,2013-01-23 02:05:00,
2013-01-22 19:10:00,24.6,16.8,30.34,NE,45,0.0,0.0,72,0.00,,,0.00,WUHU216HW,2013-01-23 02:10:00,
2013-01-22 19:15:00,24.6,16.8,30.34,NE,45,0.0,0.0,72,0.00,,,0.00,WUHU216HW,2013-01-23 02:15:00,
2013-01-22 19:20:00,24.4,16.6,30.33,NE,45,0.0,0.0,72,0.00,,,0.00,WUHU216HW,2013-01-23 02:20:00,
2013-01-22 19:25:00,24.0,16.3,30.34,NE,45,0.0,0.0,72,0.00,,,0.00,WUHU216HW,2013-01-23 02:25:00,
2013-01-22 19:30:00,24.0,16.3,30.34,NE,45,0.0,0.0,72,0.00,,,0.00,WUHU216HW,2013-01-23 02:30:00,
2013-01-22 19:35:00,23.9,16.1,30.33,NE,45,0.0,0.0,72,0.00,,,0.00,WUHU216HW,2013-01-23 02:35:00,
2013-01-22 19:40:00,23.7,16.3,30.33,NE,45,0.0,0.0,73,0.00,,,0.00,WUHU216HW,2013-01-23 02:40:00,
2013-01-22 19:46:00,23.5,16.1,30.33,NE,45,0.0,0.0,73,0.00,,,0.00,WUHU216HW,2013-01-23 02:46:00,
2013-01-22 19:51:00,23.3,15.9,30.33,NE,45,0.0,0.0,73,0.00,,,0.00,WUHU216HW,2013-01-23 02:51:00,
2013-01-22 19:56:00,23.3,16.2,30.32,NE,45,0.0,0.0,74,0.00,,,0.00,WUHU216HW,2013-01-23 02:56:00,
2013-01-22 20:01:00,23.3,16.2,30.32,NE,45,0.0,0.0,74,0.00,,,0.00,WUHU216HW,2013-01-23 03:01:00,
2013-01-22 20:06:00,23.3,16.2,30.32,NE,45,0.0,0.0,74,0.00,,,0.00,WUHU216HW,2013-01-23 03:06:00,
2013-01-22 20:11:00,23.3,16.2,30.33,NE,45,0.0,0.0,74,0.00,,,0.00,WUHU216HW,2013-01-23 03:11:00,
2013-01-22 20:17:00,23.3,16.2,30.32,NE,45,0.0,0.0,74,0.00,,,0.00,WUHU216HW,2013-01-23 03:17:00,
2013-01-22 20:22:00,23.3,16.2,30.32,NE,45,0.0,0.0,74,0.00,,,0.00,WUHU216HW,2013-01-23 03:22:00,
2013-01-22 20:27:00,23.3,16.2,30.32,NE,45,0.0,0.0,74,0.00,,,0.00,WUHU216HW,2013-01-23 03:27:00,
2013-01-22 20:32:00,23.1,16.1,30.32,NE,45,0.0,0.0,74,0.00,,,0.00,WUHU216HW,2013-01-23 03:32:00,
2013-01-22 20:37:00,23.1,16.1,30.32,NE,45,0.0,0.0,74,0.00,,,0.00,WUHU216HW,2013-01-23 03:37:00,
2013-01-22 20:42:00,23.0,15.9,30.32,NE,45,0.0,0.0,74,0.00,,,0.00,WUHU216HW,2013-01-23 03:42:00,
2013-01-22 20:47:00,22.8,15.7,30.32,NE,45,0.0,0.0,74,0.00,,,0.00,WUHU216HW,2013-01-23 03:47:00,
2013-01-22 20:52:00,22.8,15.7,30.32,NE,45,0.0,0.0,74,0.00,,,0.00,WUHU216HW,2013-01-23 03:52:00,
2013-01-22 20:57:00,22.6,15.7,30.32,NE,45,0.0,0.0,74,0.00,,,0.00,WUHU216HW,2013-01-23 03:57:00,
2013-01-22 21:02:00,22.6,15.8,30.32,NE,45,0.0,0.0,75,0.00,,,0.00,WUHU216HW,2013-01-23 04:02:00,
2013-01-22 21:07:00,22.4,15.7,30.32,NE,45,0.0,0.0,75,0.00,,,0.00,WUHU216HW,2013-01-23 04:07:00,
2013-01-22 21:12:00,22.2,15.5,30.32,NE,45,0.0,0.0,75,0.00,,,0.00,WUHU216HW,2013-01-23 04:12:00,
2013-01-22 21:18:00,22.1,15.3,30.31,NE,45,0.0,0.0,75,0.00,,,0.00,WUHU216HW,2013-01-23 04:18:00,
2013-01-22 21:23:00,22.1,15.3,30.32,NE,45,0.0,0.0,75,0.00,,,0.00,WUHU216HW,2013-01-23 04:23:00,
2013-01-22 21:28:00,21.9,15.1,30.32,NE,45,0.0,0.0,75,0.00,,,0.00,WUHU216HW,2013-01-23 04:28:00,
2013-01-22 21:33:00,21.9,15.1,30.33,NE,45,0.0,0.0,75,0.00,,,0.00,WUHU216HW,2013-01-23 04:33:00,
2013-01-22 21:38:00,21.9,15.1,30.32,NE,45,0.0,0.0,75,0.00,,,0.00,WUHU216HW,2013-01-23 04:38:00,
2013-01-22 21:43:00,21.7,14.9,30.32,North,0,0.0,0.0,75,0.00,,,0.00,WUHU216HW,2013-01-23 04:43:00,
2013-01-22 21:48:00,21.5,14.8,30.32,NE,45,0.0,0.0,75,0.00,,,0.00,WUHU216HW,2013-01-23 04:48:00,
2013-01-22 21:53:00,21.3,14.9,30.33,NE,45,0.0,0.0,76,0.00,,,0.00,WUHU216HW,2013-01-23 04:53:00,
2013-01-22 21:58:00,21.0,14.5,30.32,NE,45,0.0,0.0,76,0.00,,,0.00,WUHU216HW,2013-01-23 04:58:00,
2013-01-22 22:01:00,21.0,14.5,30.32,NE,45,0.0,0.0,76,0.00,,,0.00,WUHU216HW,2013-01-23 05:01:00,
2013-01-22 22:02:00,21.0,14.5,30.33,NE,45,0.0,0.0,76,0.00,,,0.00,WUHU216HW,2013-01-23 05:02:00,
2013-01-22 22:03:00,21.0,14.5,30.33,NE,45,0.0,0.0,76,0.00,,,0.00,WUHU216HW,2013-01-23 05:03:00,
2013-01-22 22:04:00,20.8,14.3,30.33,NE,45,0.0,0.0,76,0.00,,,0.00,WUHU216HW,2013-01-23 05:04:00,
2013-01-22 22:09:00,20.8,14.3,30.33,NE,45,0.0,0.0,76,0.00,,,0.00,WUHU216HW,2013-01-23 05:09:00,
2013-01-22 22:14:00,20.8,14.7,30.32,NE,45,0.0,0.0,77,0.00,,,0.00,WUHU216HW,2013-01-23 05:14:00,
2013-01-22 22:19:00,20.8,14.7,30.32,NE,45,0.0,0.0,77,0.00,,,0.00,WUHU216HW,2013-01-23 05:19:00,
2013-01-22 22:24:00,20.8,14.7,30.32,NE,45,0.0,0.0,77,0.00,,,0.00,WUHU216HW,2013-01-23 05:24:00,
2013-01-22 22:29:00,20.8,14.7,30.32,NE,45,0.0,0.0,77,0.00,,,0.00,WUHU216HW,2013-01-23 05:29:00,
2013-01-22 22:34:00,20.8,14.7,30.32,NE,45,0.0,0.0,77,0.00,,,0.00,WUHU216HW,2013-01-23 05:34:00,
2013-01-22 22:39:00,20.8,15.0,30.32,NE,45,0.0,0.0,78,0.00,,,0.00,WUHU216HW,2013-01-23 05:39:00,
2013-01-22 22:45:00,20.8,15.0,30.32,NE,45,0.0,0.0,78,0.00,,,0.00,WUHU216HW,2013-01-23 05:45:00,
2013-01-22 22:50:00,20.8,15.0,30.32,NE,45,0.0,0.0,78,0.00,,,0.00,WUHU216HW,2013-01-23 05:50:00,
2013-01-22 22:55:00,20.8,15.0,30.33,NE,45,0.0,0.0,78,0.00,,,0.00,WUHU216HW,2013-01-23 05:55:00,
2013-01-22 23:00:00,20.8,15.0,30.33,NE,45,0.0,0.0,78,0.00,,,0.00,WUHU216HW,2013-01-23 06:00:00,
2013-01-22 23:05:00,20.4,14.6,30.33,NE,45,0.0,0.0,78,0.00,,,0.00,WUHU216HW,2013-01-23 06:05:00,
2013-01-22 23:10:00,20.4,14.6,30.33,NE,45,0.0,0.0,78,0.00,,,0.00,WUHU216HW,2013-01-23 06:10:00,
2013-01-22 23:15:00,20.4,14.6,30.33,NE,45,0.0,0.0,78,0.00,,,0.00,WUHU216HW,2013-01-23 06:15:00,
2013-01-22 23:20:00,20.8,15.0,30.33,NE,45,0.0,0.0,78,0.00,,,0.00,WUHU216HW,2013-01-23 06:20:00,
2013-01-22 23:25:00,20.8,15.0,30.33,NE,45,0.0,0.0,78,0.00,,,0.00,WUHU216HW,2013-01-23 06:25:00,
2013-01-22 23:30:00,20.8,15.0,30.34,NE,45,0.0,0.0,78,0.00,,,0.00,WUHU216HW,2013-01-23 06:30:00,
2013-01-22 23:35:00,20.8,15.0,30.34,NE,45,0.0,0.0,78,0.00,,,0.00,WUHU216HW,2013-01-23 06:35:00,
2013-01-22 23:40:00,21.0,15.1,30.34,NE,45,0.0,0.0,78,0.00,,,0.00,WUHU216HW,2013-01-23 06:40:00,
2013-01-22 23:45:00,21.2,15.5,30.33,NE,45,0.0,0.0,78,0.00,,,0.00,WUHU216HW,2013-01-23 06:45:00,
2013-01-22 23:50:00,21.3,15.5,30.33,NE,45,0.0,0.0,78,0.00,,,0.00,WUHU216HW,2013-01-23 06:50:00,
2013-01-22 23:55:00,21.5,15.7,30.33,NE,45,0.0,0.0,78,0.00,,,0.00,WUHU216HW,2013-01-23 06:55:00,